Station 46014 (LLNR 445) - PT ARENA - 19NM North of Point Arena, CA Image indicating link to RSS feed of recent meteorological observations for station 46014


Conditions at 46014 as of
(11:10 am PDT)
1810 GMT on 06/23/2024:
     

Click on the graph icon in the table below to see a time series plot of the last five days of that observation.

5-day plot - Wind Direction Wind Direction (WDIR): N ( 350 deg true )
5-day plot - Wind Speed Wind Speed (WSPD): 15.5 kts
5-day plot - Wind Gust Wind Gust (GST): 19.4 kts
5-day plot - Atmospheric Pressure Atmospheric Pressure (PRES):29.93 in
5-day plot - Air Temperature Air Temperature (ATMP): 51.8 °F
5-day plot - Water Temperature Water Temperature (WTMP): 49.3 °F
5-day plot - Dew Point Dew Point (DEWP): 50.2 °F
5-day plot - Wind Chill Wind Chill (CHILL): 46.4 °F
5-day plot - Wind Speed at 10 Meters Wind Speed at 10 meters (WSPD10M): 15.5 kts
5-day plot - Wind Speed at 20 Meters Wind Speed at 20 meters (WSPD20M): 17.5 kts
5-day plot -  Wind Speed, Wind Gust and Atmospheric Pressure Combined plot of Wind Speed, Gust, and Air Pressure
Supplemental Measurements
Highest 1-minute Wind Speed
Time (PDT)5-day plot - 1-Minute Wind Speed WSPD 5-day plot - 1-Minute Wind Direction WDIR
11:08 am 15.5 kts-
Previous observations
TIME
(PDT)
5-day plot - Wind Direction
WDIR
 
5-day plot - Wind Speed
WSPD
kts
5-day plot - Wind Gust
GST
kts
5-day plot - Wave Height
WVHT
ft
5-day plot - Dominant Wave Period
DPD
sec
5-day plot - Average Wave Period
APD
sec
5-day plot - Mean Wave Direction
MWD
 
5-day plot - Atmospheric Pressure
PRES
in
5-day plot - Pressure Tendency
PTDY
in
5-day plot - Air Temperature
ATMP
°F
5-day plot - Water Temperature
WTMP
°F
5-day plot - Dew Point
DEWP
°F
5-day plot - Salinity
SAL
psu
5-day plot - Visibility
VIS
nmi
5-day plot - Tide (above MLLW)
TIDE
ft
2024-06-23 11:00 am N 15.5 19.4----29.93+0.04 51.8 49.3 50.2---
2024-06-23 10:50 am N 15.5 19.4 8.2 75.8 NW29.93- 51.8 49.3 50.2---
2024-06-23 10:40 amNNW 17.5 21.4 8.2-5.8 NW29.92- 51.8 49.3 50.2---
2024-06-23 10:30 amNNW 19.4 23.3----29.92- 51.8 49.3 50.2---
2024-06-23 10:20 amNNW 19.4 25.3 8.2 85.7 NW29.91- 51.8 49.3 50.4---
2024-06-23 10:10 amNNW 19.4 23.3 8.2-5.7 NW29.91- 51.8 49.3 50.4---
2024-06-23 10:00 amNNW 19.4 23.3----29.91+0.02 51.8 49.3 50.4---
2024-06-23 09:50 amNNW 19.4 23.3 7.5 75.5 NW29.91- 51.8 49.3 50.4---
2024-06-23 09:40 amNNW 19.4 23.3 7.5-5.5 NW29.91- 51.8 49.3 50.4---
2024-06-23 09:30 amNNW 19.4 25.3----29.91- 51.8 49.3 50.5---
2024-06-23 09:20 amNNW 19.4 25.3 6.9 75.4 NW29.91- 51.6 49.3 50.4---
2024-06-23 09:10 amNNW 19.4 23.3 6.9-5.4 NW29.91- 51.6 49.3 50.5---
2024-06-23 09:00 amNNW 17.5 21.4----29.91+0.04 51.6- 50.5---
2024-06-23 08:50 amNNW 19.4 25.3 7.2 75.5 NW29.91- 51.6 49.3 50.5---
2024-06-23 08:40 amNNW 19.4 23.3----29.90- 51.6 49.3 50.5---
2024-06-23 08:30 amNNW 19.4 27.2----29.90- 51.6 49.3 50.5---
2024-06-23 08:20 amNNW 19.4 25.3 7.5 75.5NNW29.90- 51.6 49.1 50.7---
2024-06-23 08:10 amNNW 19.4 25.3 7.5-5.5NNW29.89- 51.6 49.3 50.7---
2024-06-23 08:00 amNNW 19.4 23.3----29.89+0.03 51.6 49.3 50.7---
2024-06-23 07:50 amNNW 19.4 23.3 7.2 75.5 NW29.89- 51.6 49.3 50.7---
2024-06-23 07:40 amNNW 17.5 23.3----29.89- 51.6 49.3 50.7---
2024-06-23 07:30 amNNW 17.5 23.3----29.89- 51.6 49.3 50.7---
2024-06-23 07:20 amNNW 19.4 23.3 7.9 85.6 NW29.89- 51.6 49.3 50.7---
2024-06-23 07:10 amNNW 19.4 25.3 7.9-5.6 NW29.88- 51.6 49.3 50.7---
2024-06-23 07:00 amNNW 19.4 23.3----29.88+0.02 51.8 49.3 50.9---
2024-06-23 06:50 amNNW 19.4 25.3 7.5 75.5 NW29.88- 51.8 49.3 50.9---
2024-06-23 06:40 amNNW 19.4 25.3----29.88- 51.8 49.3 50.9---
2024-06-23 06:30 amNNW 21.4 27.2----29.88- 51.8 49.3 50.9---
2024-06-23 06:20 amNNW 21.4 27.2 7.9 85.6 NW29.87- 51.8 49.3 51.1---
2024-06-23 06:10 amNNW 21.4 27.2 7.9-5.6 NW29.87- 51.8 49.3 51.1---
2024-06-23 06:00 amNNW 21.4 27.2----29.87+0.00 52.0 49.3 51.3---
2024-06-23 05:50 amNNW 21.4 27.2 7.9 75.5 NW29.87- 52.0 49.3 51.3---
2024-06-23 05:40 amNNW 21.4 25.3----29.87- 52.0 49.3 51.3---
2024-06-23 05:30 amNNW 21.4 25.3----29.87- 52.0 49.3 51.3---
2024-06-23 05:20 amNNW 21.4 25.3 7.9 75.4 NW29.87- 52.2- 51.4---
2024-06-23 05:10 amNNW 21.4 27.2 7.9-5.4 NW29.86- 52.2 49.3 51.4---
2024-06-23 05:00 amNNW 21.4 27.2----29.86+0.00 52.2 49.3 51.4---
2024-06-23 04:50 amNNW 21.4 29.1 7.9 75.6 NW29.86- 52.2 49.3 51.4---
2024-06-23 04:40 amNNW 21.4 25.3----29.87- 52.3 49.5 51.6---
2024-06-23 04:30 amNNW 19.4 25.3----29.87- 52.2 49.5 51.6---
2024-06-23 04:20 amNNW 19.4 25.3 7.5 75.6 NW29.86- 52.2 49.5 51.6---
2024-06-23 04:10 amNNW 19.4 25.3 7.5-5.6 NW29.87- 52.2 49.5 51.6---
2024-06-23 04:00 amNNW 19.4 23.3----29.86+0.00 52.2 49.3 51.6---
2024-06-23 03:50 am N 17.5 21.4 7.5 75.3 NW29.86- 52.0 49.3 51.6---
2024-06-23 03:40 am N 17.5 21.4----29.87- 52.0 49.1 51.4---
2024-06-23 03:30 am N 17.5 21.4----29.87- 52.2 49.1 51.6---
2024-06-23 03:20 am N 15.5 21.4 7.2 75.4 NW29.87- 52.2 49.1 51.6---
2024-06-23 03:10 am N 15.5 19.4----29.87- 52.2 49.1 51.6---
2024-06-23 03:00 am N 15.5 21.4----29.86+0.00 52.2 49.1 51.6---
2024-06-23 02:50 am N 13.6 17.5 7.9 85.4 NW29.87- 52.2 49.1 51.6---
2024-06-23 02:40 am N 13.6 19.4----29.87- 52.2 49.1 51.6---
2024-06-23 02:30 am N 13.6 17.5----29.87- 52.0 49.1 51.4---
2024-06-23 02:20 am N 13.6 21.4 7.5 75.4 NW29.87- 52.3 49.1 51.8---
2024-06-23 02:10 amNNW 17.5 21.4 7.5-5.4 NW29.86- 52.3 49.1 51.8---
2024-06-23 02:00 amNNW 17.5 23.3----29.86+0.00 52.3 49.1 51.8---
2024-06-23 01:50 amNNW 17.5 23.3 7.9 75.5 NW29.86- 52.3 49.1 51.8---
2024-06-23 01:40 amNNW 19.4 25.3----29.85- 52.5 49.1 52.0---
2024-06-23 01:30 amNNW 19.4 25.3----29.85- 52.5 49.3 51.8---
2024-06-23 01:20 amNNW 19.4 25.3 7.9 75.5 NW29.85- 52.5 49.3 51.8---
2024-06-23 01:10 amNNW 17.5 21.4----29.86- 52.5 49.5 51.6---
2024-06-23 01:00 amNNW 17.5 23.3----29.86+0.00 52.5 49.5 51.6---
2024-06-23 12:50 am N 15.5 21.4 8.2 75.5 NW29.86- 52.5 49.5 51.4---
2024-06-23 12:40 amNNW 17.5 21.4 8.2-5.5 NW29.86- 52.5 49.5 51.4---
2024-06-23 12:30 amNNW 17.5 23.3----29.86- 52.5 49.5 51.3---
2024-06-23 12:20 amNNW 17.5 21.4 8.2 75.7 NW29.86- 52.5 49.5 51.3---
2024-06-23 12:10 amNNW 17.5 23.3 8.2-5.7 NW29.86- 52.7 49.5 51.3---
2024-06-23 12:00 amNNW 17.5 21.4----29.86+0.01 52.7 49.5 51.1---
2024-06-22 11:50 pmNNW 17.5 21.4 8.2 75.7 NW29.86- 52.7 49.5 51.1---
2024-06-22 11:40 pm N 13.6 19.4----29.86- 52.7 49.5 50.9---
2024-06-22 11:30 pm N 13.6 17.5----29.87- 52.7 49.5 50.4---
2024-06-22 11:20 pmNNW 15.5 19.4 9.2 76.0 NW29.86- 52.9 49.5 50.4---
2024-06-22 11:10 pm N 15.5 19.4 9.2-6.0 NW29.87- 52.7 49.5 50.2---
2024-06-22 11:00 pm N 13.6 19.4----29.87+0.02 52.9 49.5 50.2---
2024-06-22 10:50 pm N 13.6 17.5 8.9 76.0 NW29.87- 53.1 49.5 50.2---
2024-06-22 10:40 pm N 13.6 17.5----29.87- 53.1 49.5 50.2---
2024-06-22 10:30 pm N 13.6 17.5----29.87- 53.1 49.3 50.0---
2024-06-22 10:20 pmNNW 15.5 19.4 8.5 85.9 NW29.87- 53.2 49.3 50.0---
2024-06-22 10:10 pm N 13.6 19.4----29.86- 52.9 49.3 49.8---
2024-06-22 10:00 pm N 13.6 15.5----29.86+0.02 52.9 49.3 49.8---
2024-06-22 09:50 pm N 13.6 19.4 8.9 76.0 NW29.86- 52.9 49.3 50.0---
2024-06-22 09:40 pm N 13.6 17.5----29.86- 52.9 49.5 49.8---
2024-06-22 09:30 pm N 13.6 15.5----29.86- 52.7 49.5 49.6---
2024-06-22 09:20 pm N 11.7 17.5 8.2 85.9NNW29.86- 52.7 49.5 49.6---
2024-06-22 09:10 pm N 13.6 15.5 8.2-5.9NNW29.85- 53.1 49.5 49.8---
2024-06-22 09:00 pm N 11.7 15.5----29.85+0.01 52.9 49.5 49.5---
2024-06-22 08:50 pm N 11.7 15.5 8.2 75.8NNW29.85- 53.2 49.5 49.5---
2024-06-22 08:40 pm N 13.6 17.5----29.85- 53.2 49.6 49.1---
2024-06-22 08:30 pmNNW 13.6 17.5----29.85- 53.2 49.6 48.7---
2024-06-22 08:20 pmNNW 13.6 17.5 8.5 86.0 NW29.85- 53.2 49.8 48.6---
2024-06-22 08:10 pmNNW 13.6 17.5 8.5-6.0 NW29.85- 53.2 49.8 48.6---
2024-06-22 08:00 pm N 13.6 17.5----29.85+0.00 53.4 49.6 48.7---
2024-06-22 07:50 pmNNW 11.7 17.5 8.5 86.0 NW29.85- 53.2 49.6 48.9---
2024-06-22 07:40 pmNNW 11.7 15.5----29.84- 53.1 49.6 49.1---
2024-06-22 07:30 pmNNW 11.7 13.6----29.84- 52.9 49.5 48.9---
2024-06-22 07:20 pmNNW 9.7 13.6 7.5 85.7NNW29.84- 52.9 49.6 49.3---
2024-06-22 07:10 pmNNW 9.7 13.6 7.5-5.7NNW29.84- 52.9 49.6 49.5---
2024-06-22 07:00 pmNNW 7.8 11.7----29.84-0.03 52.5 49.6 49.3---
2024-06-22 06:50 pmNNW 7.8 11.7 7.9 85.9 NW29.84- 52.5 49.6 49.3---
2024-06-22 06:40 pmNNW 7.8 11.7----29.84- 52.5 49.6 49.1---
2024-06-22 06:30 pmNNW 7.8 11.7----29.84- 52.7 49.6 49.3---
2024-06-22 06:20 pmNNW 9.7 11.7 7.9 85.9 NW29.84- 52.7 49.6 49.1---
2024-06-22 06:10 pmNNW 9.7 13.6----29.84- 52.7 49.8 48.9---
2024-06-22 06:00 pmNNW 7.8 11.7----29.84-0.03 52.7 49.6 48.7---
2024-06-22 05:50 pmNNW 7.8 11.7 8.2 86.2 NW29.85- 52.5 49.6 48.6---
2024-06-22 05:40 pmNNW 7.8 9.7----29.85- 52.5 49.6 48.6---
2024-06-22 05:30 pmNNW 7.8 9.7----29.85- 52.3 49.6 48.6---
2024-06-22 05:20 pmNNW 9.7 11.7 8.5 86.1 NW29.85- 52.3 49.6 48.6---
2024-06-22 05:10 pmNNW 9.7 13.6----29.85- 52.3 49.6 48.7---
2024-06-22 05:00 pmNNW 11.7 13.6----29.85-0.02 52.3 49.6 48.7---
2024-06-22 04:50 pmNNW 11.7 13.6 7.9 75.9 NW29.85- 52.0 49.6 48.7---
2024-06-22 04:40 pmNNW 7.8 11.7----29.86- 51.8 49.6 48.9---
2024-06-22 04:20 pmNNW 7.8 11.7 8.2 86.0 NW29.86- 51.6 49.5 49.3---
2024-06-22 04:10 pmNNW 7.8 11.7----29.87- 51.6 49.5 49.3---
2024-06-22 04:00 pmNNW 9.7 13.6----29.87+0.00 51.8 49.5 49.5---
2024-06-22 03:50 pmNNW 9.7 13.6 7.9 75.9 NW29.87- 51.8 49.5 49.5---
2024-06-22 03:40 pmNNW 11.7 13.6----29.87- 51.6 49.3 49.3---
2024-06-22 03:30 pmNNW 11.7 15.5----29.87- 51.6 49.3 49.5---
2024-06-22 03:20 pmNNW 11.7 15.5 7.2 85.6 NW29.87- 51.6 49.3 49.5---
2024-06-22 03:10 pmNNW 11.7 15.5 7.2-5.6 NW29.88- 51.6 49.3 49.5---
2024-06-22 03:00 pmNNW 13.6 17.5----29.88+0.01 51.4 49.3 49.3---
2024-06-22 02:50 pmNNW 13.6 19.4 7.5 75.8 NW29.87- 51.4 49.3 49.3---
2024-06-22 02:40 pmNNW 13.6 17.5----29.87- 51.6 49.3 49.5---
2024-06-22 02:30 pmNNW 13.6 19.4----29.87- 51.6 49.3 49.5---
2024-06-22 02:20 pmNNW 15.5 19.4 7.2 85.7 NW29.87- 51.4 49.3 49.3---
2024-06-22 02:10 pmNNW 13.6 17.5 7.2-5.7 NW29.87- 51.4 49.1 49.1---
2024-06-22 02:00 pmNNW 13.6 17.5----29.87+0.01 51.4 49.1 49.1---
2024-06-22 01:50 pmNNW 13.6 15.5 6.9 65.6 NW29.87- 51.4 49.3 49.1---
2024-06-22 01:40 pmNNW 13.6 17.5----29.87- 51.4 49.3 49.1---
2024-06-22 01:30 pmNNW 13.6 19.4----29.87- 51.4 49.3 49.1---
2024-06-22 01:20 pmNNW 13.6 17.5 6.9 85.6 NW29.87- 51.3 49.3 48.9---
2024-06-22 01:10 pmNNW 13.6 17.5 6.9-5.6 NW29.87- 51.3 49.3 48.9---
2024-06-22 01:00 pmNNW 13.6 17.5----29.87+0.03 51.3 49.3 48.9---
2024-06-22 12:50 pmNNW 13.6 19.4 7.5 85.9 NW29.87- 51.3 49.1 48.7---
2024-06-22 12:40 pmNNW 13.6 17.5----29.87- 51.3 49.1 48.7---
2024-06-22 12:30 pmNNW 13.6 19.4----29.87- 51.1 49.1 48.6---
2024-06-22 12:20 pmNNW 13.6 17.5 8.2 85.8 NW29.87- 51.1 48.9 48.6---
2024-06-22 12:10 pmNNW 13.6 17.5 8.2-5.8 NW29.86- 51.1 48.9 48.7---
2024-06-22 12:00 pmNNW 15.5 17.5----29.86+0.02 51.1 48.9 48.9---
2024-06-22 11:50 amNNW 13.6 19.4 7.5 85.7NNW29.86- 50.9 48.9 48.9---
2024-06-22 11:40 amNNW 15.5 19.4----29.86- 50.9 48.7 48.9---
2024-06-22 11:30 amNNW 15.5 19.4----29.86- 50.7 48.9 48.9---
2024-06-22 11:20 amNNW 15.5 19.4 7.5 75.6 NW29.86- 50.7 48.9 49.1---
2024-06-22 11:10 amNNW 15.5 21.4----29.85- 50.5 48.9 49.1---
2024-06-22 11:00 amNNW 15.5 19.4----29.86+0.03 50.4 48.9 49.1---
2024-06-22 10:50 amNNW 15.5 19.4 7.9 85.7 NW29.85- 50.4 48.9 49.3---

Detailed Wave Summary
for 46014 as of (10:40 am PDT)
1740 GMT on 06/23/2024:

These wave data are displayed in rounded times.

     

Click on the graph icon in the table below to see a time series plot of the last five days of that observation.

5-day plot - Significant Wave Height Significant Wave Height (WVHT): 8.2 ft
5-day plot - Swell Height Swell Height (SwH): 2.6 ft
5-day plot - Swell Period Swell Period (SwP): 11.4 sec
5-day plot - Swell Direction Swell Direction (SwD): NW
5-day plot - Wind Wave Height Wind Wave Height (WWH): 7.5 ft
5-day plot - Wind Wave Period Wind Wave Period (WWP): 7.1 sec
5-day plot - Wind Wave Direction Wind Wave Direction (WWD): NW
5-day plot - Wave Steepness Wave Steepness (STEEPNESS): STEEP
5-day plot - Average Wave Period Average Wave Period (APD): 5.8 sec
Previous observations
TIME
(PDT)
5-day plot - Wave Height
WVHT
ft
5-day plot - Swell Height
SwH
ft
5-day plot - Swell Period
SwP
sec
5-day plot - Swell Direction
SwD
 
5-day plot - Wind Wave Height
WWH
ft
5-day plot - Wind Wave Period
WWP
sec
5-day plot - Wind Wave Direction
WWD
 
5-day plot - Wave Steepness
STEEPNESS
 
5-day plot - Average Wave Period
APD
sec
2024-06-23 10:10 am 8.2 1.0 12.9 S 7.9 7.7 NW STEEP 5.7
2024-06-23 09:40 am 7.5 1.3 17.4NNW 7.5 7.1 NW STEEP 5.5
2024-06-23 09:10 am 6.9 1.0 11.4 E 6.9 7.1 NW STEEP 5.4
2024-06-23 08:40 am 7.2 1.3 12.1ESE 7.2 7.1 NW STEEP 5.5
2024-06-23 08:10 am 7.5 1.0 17.4 NE 7.5 7.1 NNW STEEP 5.5
2024-06-23 07:40 am 7.2 1.0 12.1 N 7.2 7.1 NW STEEP 5.5
2024-06-23 07:10 am 7.9 2.3 12.1 W 7.5 7.7 NW STEEP 5.6
2024-06-23 06:40 am 7.5 1.3 12.9SSE 7.5 7.1 NW STEEP 5.5
2024-06-23 06:10 am 7.9 0.7 12.9 NW 7.9 7.7 NW STEEP 5.6
2024-06-23 05:40 am 7.9 1.6 12.1 NW 7.5 7.1 NW STEEP 5.5
2024-06-23 05:10 am 7.9 1.3 12.9 N 7.5 7.1 NW STEEP 5.4
2024-06-23 04:40 am 7.9 0.7 12.9WSW 7.5 7.1 NW STEEP 5.6
2024-06-23 04:10 am 7.5 1.0 12.9WSW 7.5 7.1 NW STEEP 5.6
2024-06-23 03:40 am 7.5 1.3 13.8SSE 7.2 6.7 NWVERY_STEEP 5.3
2024-06-23 03:10 am 7.2 3.3 13.8 S 6.6 6.7 NWVERY_STEEP 5.4
2024-06-23 02:40 am 7.9 5.6 7.7 NW 5.6 5.6 NW STEEP 5.4
2024-06-23 02:10 am 7.5 0.0-- 7.5 6.7 NWVERY_STEEP 5.4
2024-06-23 01:40 am 7.9 0.7 12.9 N 7.9 7.1 NW STEEP 5.5
2024-06-23 01:10 am 7.9 1.0 19.0SSE 7.5 7.1 NW STEEP 5.5
2024-06-23 12:40 am 8.2 2.0 12.9ESE 7.9 7.1 NW STEEP 5.5
2024-06-23 12:10 am 8.2 1.0 13.8 SW 7.9 7.1 NW STEEP 5.7
2024-06-22 11:40 pm 8.2 4.9 7.1 NW 6.6 4.8 NW STEEP 5.7
2024-06-22 11:10 pm 9.2 6.6 7.1 NW 6.2 4.0 NWVERY_STEEP 6.0
2024-06-22 10:40 pm 8.9 7.5 7.1 NW 4.9 4.8 NWVERY_STEEP 6.0
2024-06-22 10:10 pm 8.5 6.6 7.7 NW 5.6 5.9 NW STEEP 5.9
2024-06-22 09:40 pm 8.9 7.9 7.1 NW 4.6 4.8 NWVERY_STEEP 6.0
2024-06-22 09:10 pm 8.2 7.2 7.7NNW 4.3 5.3 NW STEEP 5.9
2024-06-22 08:40 pm 8.2 6.2 7.1NNW 5.2 5.6 NW STEEP 5.8
2024-06-22 08:10 pm 8.5 7.2 7.7 NW 4.9 5.9 NW STEEP 6.0
2024-06-22 07:40 pm 8.5 7.9 7.7 NW 3.6 4.8 NW STEEP 6.0
2024-06-22 07:10 pm 7.5 6.9 7.7NNW 3.0 4.3 NNW STEEP 5.7
2024-06-22 06:40 pm 7.9 7.2 7.7 NW 2.3 4.0 NNW STEEP 5.9
2024-06-22 06:10 pm 7.9 7.5 7.7 NW 3.0 4.5 NW STEEP 5.9
2024-06-22 05:40 pm 8.2 8.2 7.7 NW 2.0 3.8 NNW STEEP 6.2
2024-06-22 05:10 pm 8.5 8.2 7.7 NW 3.0 4.8 NW STEEP 6.1
2024-06-22 04:40 pm 7.9 7.5 7.1 NW 2.3 3.8 NNW STEEP 5.9
2024-06-22 04:10 pm 8.2 8.2 7.7 NW 2.0 3.7 NW STEEP 6.0
2024-06-22 03:40 pm 7.9 6.9 7.1 NW 3.6 5.3 NW STEEP 5.9
2024-06-22 03:10 pm 7.2 5.9 8.3 NW 3.9 4.8 NW STEEP 5.6
2024-06-22 02:40 pm 7.5 5.2 7.1 NW 5.2 6.2 NW STEEP 5.8
2024-06-22 02:10 pm 7.2 5.6 7.7 NW 4.6 6.2 NW STEEP 5.7
2024-06-22 01:40 pm 6.9 4.6 7.1 NW 4.9 6.2 NWVERY_STEEP 5.6
2024-06-22 01:10 pm 6.9 4.6 7.7 NW 5.2 6.7 NW STEEP 5.6
2024-06-22 12:40 pm 7.5 5.9 7.7 NW 4.9 6.2 NW STEEP 5.9
2024-06-22 12:10 pm 8.2 5.6 7.7 NW 5.9 5.0 NW STEEP 5.8
2024-06-22 11:40 am 7.5 4.9 8.3NNW 5.9 5.6 NW STEEP 5.7
2024-06-22 11:10 am 7.5 3.9 13.8 N 6.6 6.7 NWVERY_STEEP 5.6

Plot of wave energy versus frequency (and period)